Location: Zengebe
(1.4833°N, 32.5167°E)
Time: 22:03:21
(UTC+00:00)

Cosmos 405 - Pass Details

Date: 07 June 2020
Orbit: 452 x 464 km, 81.3° (Epoch: 10 July)

Event Time Altitude Azimuth Distance (km) Brightness Sun altitude
Rises 02:58:33 0° 348° (NNW) 2,477 6.8 -11.0°
Reaches altitude 10° 03:00:39 10° 344° (NNW) 1,606 5.8 -10.5°
Maximum altitude 03:04:06 56° 265° (W) 554 3.0 -9.7°
Drops below altitude 10° 03:07:34 10° 186° (S) 1,613 5.4 -8.9°
Sets 03:09:40 0° 182° (S) 2,489 6.4 -8.4°
